User: anonymous
Location: SAPM � Hemmingford
(45.0500°N, 73.5833°W)
Time: 21:51:05
(UTC-04:00)
Language:

Cosmos 1603 - Orbit

View from above orbital plane
View from above orbital plane
View from above satellite
View from above satellite

Ground track
Ground track

The orbit data is extracted from the following two-line orbital elements,

1 15333U 84106A   14244.06973286  .00000105  00000-0  80249-4 0   657
2 15333 071.0277 068.3048 0021504 316.4785 181.5492 14.13951393544064
Epoch (UTC): 01 September 2014 01:40:24
Eccentricity: 0.0021504
inclination: 71.0277°
perigee height: 830 km
apogee height: 861 km
right ascension of ascending node: 68.3048°
argument of perigee: 316.4785°
revolutions per day: 14.13951393
mean anomaly at epoch: 181.5492°
orbit number at epoch: 54406

The dashed part of the orbit path shows where the satellite is in the earth's shadow,  

DLR